{"data":{"norad_id":53934,"epoch":"2026-09-20T08:42:43.121376Z","epoch_age_seconds":98475,"freshness":"FRESH","line1":"1 53934U 22119BA  26263.36299909 -.00000595  00000+0 -19287-4 0  9996","line2":"2 53934  53.1566 144.5871 0001742 125.9028 234.2126 15.08827326221448","mean_motion":15.08827326,"eccentricity":0.0001742,"inclination_deg":53.1566,"raan_deg":144.5871,"arg_perigee_deg":125.9028,"mean_anomaly_deg":234.2126,"bstar":-1.9287e-5,"rev_number":22144,"period_min":95.438356343766,"perigee_km":538.57702707076,"apogee_km":540.98723009516,"semimajor_km":6917.919128583,"source":"CELESTRAK","updated_at":"2026-09-21T09:00:33.038294Z"}}